Location: Knowlton
(51.2333°N, 1.2667°E)
Time: 09:10:52
(UTC+00:00)

Cosmos 482 Debris - Pass Details

Date: 18 April 2021
Orbit: 200 x 2130 km, 52.0° (Epoch: 16 May)

Event Time Altitude Azimuth Distance (km) Brightness Sun altitude
Rises 20:28:04 0° 258° (WSW) 2,146 8.0 -13.4°
Reaches altitude 10° 20:30:20 10° 259° (W) 1,114 6.5 -13.7°
Maximum altitude 20:32:39 86° 341° (NNW) 238 2.5 -14.0°
Enters shadow 20:32:58 57° 72° (ENE) 276 2.6 -14.0°
